When you browse on this site, cookies collect data to enhance your experience and personalize the content and advertising you see.
Visit our Privacy Policy to learn more. By continuing to use the site, you agree to this use of cookies and data.
  • In Latvia
  • List of Countries
  • For 7 days
  • Water Temperature
  • Satellite Maps
  • Weather Map
  • Weather Widgets
  • user-avatar
    Login

    Hourly Weather Darwin

    Today, 23 January, Wednesday

    Time Temperature Precipitation Wind Pressure Humidity
    00:00 +29°C° 2.3 mm 3 mps 755 mmHg 89%
    01:00 +29°C° 3.7 mm 3 mps 755 mmHg 89%
    02:00 +28°C° 3.7 mm 3 mps 754 mmHg 90%
    03:00 +28°C° 0 mm 3 mps 754 mmHg 90%
    04:00 +28°C° 3.3 mm 3 mps 754 mmHg 91%
    05:00 +28°C° 3.3 mm 3 mps 754 mmHg 91%
    06:00 +28°C° 3.3 mm 3 mps 754 mmHg 91%
    07:00 +28°C° 2.4 mm 3 mps 755 mmHg 90%
    08:00 +29°C° 2.4 mm 3 mps 755 mmHg 90%
    09:00 +30°C° 0 mm 3 mps 755 mmHg 86%
    10:00 +30°C° 1.9 mm 3 mps 755 mmHg 84%
    11:00 +30°C° 1.9 mm 2 mps 755 mmHg 83%
    12:00 +31°C° 1.9 mm 2 mps 755 mmHg 81%
    13:00 +31°C° 0.9 mm 2 mps 754 mmHg 82%
    14:00 +30°C° 0.9 mm 1 mps 754 mmHg 82%
    15:00 +29°C° 0 mm 2 mps 754 mmHg 89%
    16:00 +29°C° 0.4 mm 2 mps 754 mmHg 89%
    17:00 +29°C° 0.4 mm 2 mps 754 mmHg 88%
    18:00 +29°C° 0.4 mm 2 mps 754 mmHg 88%
    19:00 +29°C° 0.1 mm 1 mps 754 mmHg 89%
    20:00 +29°C° 0.1 mm 1 mps 754 mmHg 90%
    21:00 +28°C° 0.1 mm 1 mps 755 mmHg 91%
    22:00 +28°C° 0 mm 1 mps 755 mmHg 91%
    23:00 +28°C° 0 mm 1 mps 754 mmHg 92%

    Tomorrow, 24 January, Thursday

    Time Temperature Precipitation Wind Pressure Humidity
    00:00 +28°C° 0 mm 2 mps 754 mmHg 93%
    01:00 +28°C° 3.1 mm 2 mps 754 mmHg 93%
    02:00 +28°C° 3.1 mm 2 mps 754 mmHg 93%
    03:00 +28°C° 3.1 mm 2 mps 754 mmHg 93%
    04:00 +28°C° 0.3 mm 2 mps 754 mmHg 92%
    05:00 +28°C° 0.3 mm 2 mps 754 mmHg 91%
    06:00 +28°C° 0.3 mm 2 mps 754 mmHg 90%
    07:00 +29°C° 1.2 mm 2 mps 754 mmHg 86%
    08:00 +30°C° 1.2 mm 3 mps 754 mmHg 81%
    09:00 +33°C° 1.2 mm 3 mps 754 mmHg 76%
    10:00 +33°C° 2.3 mm 4 mps 754 mmHg 76%
    11:00 +33°C° 2.3 mm 5 mps 754 mmHg 76%
    12:00 +33°C° 2.3 mm 5 mps 754 mmHg 76%
    13:00 +33°C° 2.2 mm 5 mps 753 mmHg 75%
    14:00 +33°C° 2.2 mm 5 mps 753 mmHg 75%
    15:00 +33°C° 2.2 mm 5 mps 753 mmHg 74%
    16:00 +32°C° 0.9 mm 5 mps 753 mmHg 77%
    17:00 +32°C° 0.9 mm 4 mps 753 mmHg 79%
    18:00 +30°C° 0.9 mm 4 mps 753 mmHg 82%
    19:00 +30°C° 0.2 mm 3 mps 754 mmHg 82%
    20:00 +30°C° 0.2 mm 3 mps 754 mmHg 82%
    21:00 +29°C° 0.2 mm 3 mps 755 mmHg 82%
    22:00 +29°C° 0.2 mm 3 mps 755 mmHg 83%
    23:00 +29°C° 0.2 mm 3 mps 755 mmHg 84%

    Day after tomorrow, 25 January, Friday

    Time Temperature Precipitation Wind Pressure Humidity
    00:00 +29°C° 0.2 mm 3 mps 755 mmHg 85%
    01:00 +29°C° 1.3 mm 3 mps 754 mmHg 86%
    02:00 +29°C° 1.3 mm 4 mps 754 mmHg 87%
    03:00 +29°C° 1.3 mm 4 mps 753 mmHg 88%
    04:00 +29°C° 1.4 mm 4 mps 754 mmHg 88%
    05:00 +29°C° 1.4 mm 4 mps 754 mmHg 88%
    06:00 +29°C° 1.4 mm 4 mps 754 mmHg 88%
    07:00 +29°C° 0 mm 3 mps 754 mmHg 86%
    08:00 +30°C° 0 mm 3 mps 755 mmHg 84%
    09:00 +31°C° 0 mm 3 mps 755 mmHg 82%
    10:00 +33°C° 0.4 mm 4 mps 755 mmHg 76%
    11:00 +34°C° 0.4 mm 4 mps 755 mmHg 71%
    12:00 +35°C° 0.4 mm 5 mps 755 mmHg 66%
    13:00 +35°C° 1 mm 5 mps 754 mmHg 65%
    14:00 +35°C° 1 mm 5 mps 754 mmHg 64%
    15:00 +35°C° 1 mm 6 mps 753 mmHg 64%
    16:00 +34°C° 1.3 mm 5 mps 754 mmHg 69%
    17:00 +33°C° 1.3 mm 5 mps 754 mmHg 74%
    18:00 +32°C° 1.3 mm 5 mps 754 mmHg 78%
    19:00 +30°C° 4.5 mm 4 mps 755 mmHg 81%
    20:00 +29°C° 4.5 mm 4 mps 755 mmHg 84%
    21:00 +29°C° 4.5 mm 4 mps 756 mmHg 86%
    22:00 +29°C° 2.7 mm 4 mps 756 mmHg 86%
    23:00 +29°C° 2.7 mm 3 mps 756 mmHg 86%

    26 January, Saturday

    Time Temperature Precipitation Wind Pressure Humidity
    00:00 +28°C° 2.7 mm 3 mps 756 mmHg 86%
    01:00 +28°C° 3.2 mm 3 mps 756 mmHg 86%
    02:00 +28°C° 3.2 mm 3 mps 755 mmHg 87%
    03:00 +28°C° 3.2 mm 3 mps 754 mmHg 87%
    04:00 +28°C° 2.4 mm 4 mps 755 mmHg 87%
    05:00 +28°C° 2.4 mm 4 mps 755 mmHg 88%
    06:00 +28°C° 2.4 mm 4 mps 755 mmHg 88%
    07:00 +29°C° 2.7 mm 4 mps 755 mmHg 86%
    08:00 +29°C° 2.7 mm 4 mps 756 mmHg 85%
    09:00 +30°C° 2.7 mm 4 mps 756 mmHg 84%
    10:00 +30°C° 2.6 mm 5 mps 756 mmHg 82%
    11:00 +30°C° 2.6 mm 5 mps 756 mmHg 80%
    12:00 +32°C° 2.6 mm 5 mps 756 mmHg 79%
    13:00 +30°C° 2.8 mm 6 mps 755 mmHg 82%
    14:00 +29°C° 2.8 mm 6 mps 754 mmHg 85%
    15:00 +29°C° 2.8 mm 6 mps 754 mmHg 88%
    16:00 +28°C° 3.3 mm 6 mps 754 mmHg 89%
    17:00 +28°C° 3.3 mm 6 mps 754 mmHg 90%
    18:00 +28°C° 3.3 mm 6 mps 754 mmHg 91%
    19:00 +28°C° 2.8 mm 6 mps 754 mmHg 90%
    20:00 +28°C° 2.8 mm 6 mps 755 mmHg 90%
    21:00 +28°C° 2.8 mm 6 mps 755 mmHg 90%
    22:00 +28°C° 0.1 mm 6 mps 755 mmHg 89%
    23:00 +28°C° 0.1 mm 6 mps 755 mmHg 89%

    27 January, Sunday

    Time Temperature Precipitation Wind Pressure Humidity
    00:00 +28°C° 0.1 mm 6 mps 755 mmHg 89%
    01:00 +28°C° 0.2 mm 6 mps 755 mmHg 88%
    02:00 +28°C° 0.2 mm 6 mps 754 mmHg 88%
    03:00 +28°C° 0.2 mm 6 mps 754 mmHg 88%
    04:00 +28°C° 1 mm 6 mps 754 mmHg 88%
    05:00 +28°C° 1 mm 6 mps 754 mmHg 88%
    06:00 +28°C° 1 mm 6 mps 755 mmHg 88%
    07:00 +28°C° 1.3 mm 6 mps 755 mmHg 86%
    08:00 +29°C° 1.3 mm 6 mps 756 mmHg 83%
    09:00 +30°C° 1.3 mm 7 mps 756 mmHg 81%
    10:00 +32°C° 0.5 mm 7 mps 756 mmHg 77%
    11:00 +33°C° 0.5 mm 7 mps 755 mmHg 74%
    12:00 +34°C° 0.5 mm 8 mps 755 mmHg 71%
    13:00 +33°C° 1 mm 7 mps 754 mmHg 72%
    14:00 +33°C° 1 mm 7 mps 754 mmHg 73%
    15:00 +33°C° 1 mm 7 mps 753 mmHg 74%
    16:00 +32°C° 0.2 mm 7 mps 753 mmHg 76%
    17:00 +32°C° 0.2 mm 6 mps 754 mmHg 79%
    18:00 +30°C° 0.2 mm 6 mps 754 mmHg 82%
    19:00 +30°C° 0.3 mm 6 mps 754 mmHg 83%
    20:00 +30°C° 0.3 mm 7 mps 754 mmHg 83%
    21:00 +30°C° 0.3 mm 7 mps 754 mmHg 84%
    22:00 +30°C° 0 mm 7 mps 754 mmHg 84%
    23:00 +31°C° 0 mm 8 mps 754 mmHg 84%

    28 January, Monday

    Time Temperature Precipitation Wind Pressure Humidity
    00:00 +31°C° 0 mm 8 mps 754 mmHg 84%
    01:00 +31°C° 0.8 mm 8 mps 754 mmHg 84%
    02:00 +29°C° 0.8 mm 8 mps 754 mmHg 85%
    03:00 +29°C° 0.8 mm 8 mps 754 mmHg 86%
    04:00 +29°C° 0.9 mm 7 mps 754 mmHg 86%
    05:00 +29°C° 0.9 mm 7 mps 754 mmHg 87%
    06:00 +28°C° 0.9 mm 6 mps 755 mmHg 88%
    07:00 +29°C° 0.5 mm 6 mps 755 mmHg 85%
    08:00 +30°C° 0.5 mm 6 mps 755 mmHg 82%
    09:00 +32°C° 0.5 mm 6 mps 755 mmHg 80%
    10:00 +33°C° 0.6 mm 7 mps 754 mmHg 78%
    11:00 +33°C° 0.6 mm 7 mps 754 mmHg 77%
    12:00 +33°C° 0.6 mm 8 mps 754 mmHg 76%
    13:00 +33°C° 1.2 mm 8 mps 754 mmHg 74%
    14:00 +33°C° 1.2 mm 8 mps 753 mmHg 73%
    15:00 +33°C° 1.2 mm 8 mps 753 mmHg 72%
    16:00 +33°C° 0 mm 8 mps 753 mmHg 74%
    17:00 +32°C° 0 mm 7 mps 753 mmHg 76%
    18:00 +32°C° 0 mm 7 mps 753 mmHg 78%
    19:00 +32°C° 0 mm 6 mps 754 mmHg 80%
    20:00 +30°C° 0 mm 6 mps 754 mmHg 81%
    21:00 +30°C° 0 mm 5 mps 755 mmHg 83%
    22:00 +30°C° 0 mm 5 mps 755 mmHg 83%
    23:00 +30°C° 0 mm 6 mps 755 mmHg 83%
    Show more